Terminal Aerodrome Forecast
Issued by NWS Boston, MA

Home | Current Version | Previous Version | Text Only | Print | Product List | Glossary On
Versions: 1 2 3 4 5 6 7 8 9 10 11 12 13 14 15 16 17 18 19 20 21 22 23 24 25 26 27 28 29 30 31 32 33 34 35 36 37 38 39 40 41 42 43 44 45 46
790
FTUS41 KBOX 171122
TAFPVD
TAF
KPVD 171122Z 1712/1812 23005KT P6SM BKN100
     FM171800 06005KT P6SM OVC050
     FM172100 10004KT 6SM -RA OVC050
     FM180300 10007KT 3SM -RA OVC015
     FM180800 05007KT 2SM -RA OVC008=

USA.gov is the U.S. government's official web portal to all federal, state and local government web resources and services.